Location: Newark
(52.7705°N, 1.2046°W)
Time: 09:26:42
(UTC+00:00)

Starlink (trailer) - Visible Passes

Search period start: 24 July 2019 00:00
Search period end: 03 August 2019 00:00
Orbit: 548 x 551 km, 53.0° (Epoch: 23 July)

Date Brightness Start Highest point End Pass type
(mag) Time Alt. Az. Time Alt. Az. Time Alt. Az.
24 Jul 4.3 00:27:41 33° SSE 00:27:51 33° SSE 00:31:36 10° E visible
24 Jul 3.5 02:03:18 12° WSW 02:07:09 81° SSE 02:11:19 10° E visible
25 Jul 4.0 00:21:56 38° SSE 00:22:21 40° SSE 00:26:15 10° E visible
25 Jul 3.6 01:57:34 10° WSW 02:01:45 87° SSE 02:05:55 10° E visible
26 Jul 3.8 00:16:04 41° S 00:16:53 47° SSE 00:20:53 10° E visible
26 Jul 3.6 01:52:10 10° W 01:56:20 88° N 02:00:31 10° E visible
26 Jul 5.7 22:34:28 13° ESE 22:34:28 13° ESE 22:35:15 10° E visible
27 Jul 3.6 00:10:03 36° SW 00:11:25 56° SSE 00:15:29 10° ENE visible
27 Jul 3.6 01:46:46 10° W 01:50:56 86° N 01:55:07 10° E visible
27 Jul 3.6 03:26:24 10° W 03:30:33 71° SSW 03:34:41 10° ESE visible
27 Jul 5.2 22:28:09 19° ESE 22:28:09 19° ESE 22:30:06 10° E visible
28 Jul 3.5 00:03:42 25° SW 00:05:58 64° SSE 00:10:05 10° ENE visible
28 Jul 3.6 01:41:22 10° W 01:45:33 85° N 01:49:43 10° E visible
28 Jul 3.6 03:21:00 10° WNW 03:25:07 63° SSW 03:29:13 10° ESE visible
28 Jul 4.5 22:20:55 26° SSE 22:21:21 26° SE 22:24:51 10° E visible
28 Jul 3.5 23:56:23 10° WSW 00:00:32 73° SSE 00:04:40 10° E visible
29 Jul 3.6 01:35:58 10° W 01:40:09 86° N 01:44:19 10° E visible
29 Jul 3.7 03:15:36 10° WNW 03:19:40 54° SSW 03:23:43 10° SE visible
29 Jul 4.3 22:12:07 10° SSW 22:15:50 32° SE 22:19:33 10° E visible
29 Jul 3.5 23:50:57 10° WSW 23:55:06 80° SSE 23:59:17 10° E visible
30 Jul 3.6 01:30:34 10° W 01:34:45 89° N 01:38:55 10° E visible
30 Jul 3.9 03:10:13 10° W 03:14:12 46° SSW 03:18:10 10° SE visible
30 Jul 4.0 22:06:27 10° SW 22:10:19 39° SSE 22:14:12 10° E visible
30 Jul 3.5 23:45:32 10° WSW 23:49:41 86° S 23:53:52 10° E visible
31 Jul 3.5 01:25:10 10° W 01:29:20 86° SSW 01:33:30 10° ESE visible
31 Jul 4.1 03:04:50 10° W 03:08:42 38° SSW 03:12:34 10° SE visible
31 Jul 3.8 22:00:51 10° SW 22:04:50 46° SSE 22:08:49 10° E visible
31 Jul 3.5 23:40:07 10° W 23:44:17 89° N 23:48:27 10° E visible
01 Aug 3.5 01:19:45 10° W 01:23:55 80° SSW 01:28:04 10° ESE visible
01 Aug 4.3 02:59:29 10° W 03:03:12 32° SSW 03:06:53 10° SSE visible
01 Aug 3.7 21:55:18 10° SW 21:59:22 54° SSE 22:03:26 10° ENE visible
01 Aug 3.6 23:34:42 10° W 23:38:52 86° N 23:43:03 10° E visible
02 Aug 3.5 01:14:20 10° W 01:18:30 73° SSW 01:22:38 10° ESE visible
02 Aug 4.5 02:54:11 10° W 02:57:40 26° SW 03:01:08 10° SSE visible
02 Aug 3.6 21:49:47 10° WSW 21:53:54 63° SSE 21:58:02 10° ENE visible
02 Aug 3.6 23:29:18 10° W 23:33:28 85° N 23:37:38 10° E visible
